This is the latest recevied weather packets stored in our database for station/object K5BOU. If no packets are shown the sender has not sent any weather packets the latest 10 day(s).
| Time | Temp. | Humidity | Pressure | Rain* | Wind** | Luminosity | Snow |
|---|---|---|---|---|---|---|---|
| 1788280496 | 30.56° C | 83% | 1014.6 hPa | 0 mm | - | 226 W/m² | - |
| 1788280194 | 30.56° C | 83% | 1014.4 hPa | 0 mm | - | 221 W/m² | - |
| 1788279890 | 30.56° C | 83% | 1014.4 hPa | 0 mm | - | 220 W/m² | - |
| 1788279589 | 30.56° C | 84% | 1014.4 hPa | 0 mm | - | 230 W/m² | - |
| 1788279288 | 30.56° C | 85% | 1014.6 hPa | 0 mm | - | 246 W/m² | - |
| 1788278984 | 30.56° C | 84% | 1014.8 hPa | 0 mm | - | 268 W/m² | - |
| 1788278680 | 30.56° C | 85% | 1014.6 hPa | 0 mm | - | 293 W/m² | - |
| 1788278379 | 30.56° C | 84% | 1014.4 hPa | 0 mm | - | 345 W/m² | - |
| 1788278079 | 30° C | 87% | 1014.7 hPa | 0 mm | - | 518 W/m² | - |
| 1788277775 | 30° C | 86% | 1014.3 hPa | 0 mm | - | 374 W/m² | - |
| 1788277474 | 30° C | 86% | 1014.4 hPa | 0 mm | - | 261 W/m² | - |
| 1788277169 | 30° C | 86% | 1014.6 hPa | 0 mm | - | 241 W/m² | - |
| 1788276864 | 30.56° C | 86% | 1014.6 hPa | 0 mm | - | 274 W/m² | - |
| 1788276558 | 30.56° C | 85% | 1014.4 hPa | 0 mm | - | 417 W/m² | - |
| 1788276253 | 30.56° C | 86% | 1014.5 hPa | 0 mm | - | 395 W/m² | - |
| 1788275953 | 30° C | 88% | 1014.3 hPa | 0 mm | - | 548 W/m² | - |
| 1788275653 | 29.44° C | 89% | 1014.3 hPa | 0 mm | - | 369 W/m² | - |
| 1788275352 | 29.44° C | 90% | 1014.5 hPa | 0 mm | - | 292 W/m² | - |
| 1788275050 | 29.44° C | 89% | 1014.6 hPa | 0 mm | - | 388 W/m² | - |
| 1788274748 | 28.89° C | 89% | 1014.7 hPa | 0 mm | - | 418 W/m² | - |
| 1788274447 | 28.89° C | 90% | 1014.6 hPa | 0 mm | - | 247 W/m² | - |
| 1788274142 | 28.89° C | 90% | 1014.5 hPa | 0 mm | - | 307 W/m² | - |
| 1788273838 | 28.33° C | 92% | 1014.7 hPa | 0 mm | - | 304 W/m² | - |
| 1788273533 | 28.33° C | 93% | 1014.7 hPa | 0 mm | - | 289 W/m² | - |
| 1788273229 | 27.78° C | 94% | 1014.9 hPa | 0 mm | - | 205 W/m² | - |
* Rain latest hour (hover to see other rain measurements)
** Current wind speed in m/s (hover to see current wind gust speed)